Location: San Martino di Castrozza
(46.2667°N, 11.8000°E)
Time: 03:41:52
(UTC+00:00)

AQUA - Pass Details

Date: 23 April 2021
Orbit: 701 x 704 km, 98.2° (Epoch: 15 May)

Event Time Altitude Azimuth Distance (km) Brightness Sun altitude
Rises 01:07:59 0° 14° (NNE) 3,100 8.3 -25.6°
Reaches altitude 10° 01:10:15 10° 16° (NNE) 2,177 7.3 -25.4°
Maximum altitude 01:15:01 77° 103° (ESE) 725 3.8 -24.9°
Enters shadow 01:15:20 73° 144° (SE) 737 3.7 -24.9°
